Granada, Spain

4:23 AM CEST on May 29, 2017 (GMT +0200)
Granada

Weather History for LEGR - October, 2011

Change the Weather History Date:

Monday, October 3, 2011

  Actual Average Record
Temperature  
Mean Temperature 70 °F -  
Max Temperature 86 °F 71 °F 91 °F (2004)
Min Temperature 55 °F 47 °F 42 °F (1996)
Cooling Degree Days 6    
Growing Degree Days 20 (Base 50)    
Moisture  
Dew Point 51 °F    
Average Humidity 53    
Maximum Humidity 88    
Minimum Humidity 22    
Precipitation  
Precipitation 0.00 in - - ()
Sea Level Pressure  
Sea Level Pressure 30.26 in    
Wind  
Wind Speed 2 mph ()    
Max Wind Speed 12 mph    
Max Gust Speed -    
Visibility 7.2 miles    
Events      
Averages and records for this station are not official NWS values.
T = Trace of Precipitation, MM = Missing Value Source: Averaged Metar Reports

Daily Weather History Graph

Daily Weather History Graph

Search for Another Location

Airport or City:

Trip Planner

Search our weather history database for the weather conditions in past years. The results will help you decide how hot, cold, wet, or windy it might be!

Date:

Astronomy

Oct. 03, 2011 Rise Set
Actual Time 8:11 AM CEST 7:56 PM CEST
Civil Twilight 7:45 AM CEST 8:22 PM CEST
Nautical Twilight 7:15 AM CEST 8:52 PM CEST
Astronomical Twilight 6:45 AM CEST 9:22 PM CEST
Moon 2:50 PM CEST (10/3) No Moon Set
Length of Visible Light 12h 36m
Length of Day
11h 44m
Waxing Crescent, 42% of the Moon is Illuminated
Oct 3
Waxing Crescent
Oct 4
First Quarter
Oct 12
Full
Oct 20
Last Quarter
Oct 26
New

Hourly Weather History & Observations

Time (CEST) Temp. Heat Index Dew Point Humidity Pressure Visibility Wind Dir Wind Speed Gust Speed Precip Events Conditions
2:00 AM 66 °F - 56 °F 62% 30.25 in 9 mi South 3.5 mph - -  
6:00 AM 57.2 °F - 53.6 °F 88% 30.30 in - Calm Calm - N/A   Clear
6:30 AM 57.2 °F - 53.6 °F 88% 30.30 in - Calm Calm - N/A   Clear
7:00 AM 55.4 °F - 51.8 °F 88% 30.30 in - Calm Calm - N/A   Clear
7:30 AM 55.4 °F - 51.8 °F 88% 30.30 in - Calm Calm - N/A   Clear
8:00 AM 55 °F - 51 °F 82% 30.30 in 6 mi SW 2.3 mph - -  
8:00 AM 55.4 °F - 51.8 °F 88% 30.30 in - Variable 1.2 mph - N/A   Clear
8:30 AM 55.4 °F - 51.8 °F 88% 30.30 in - Calm Calm - N/A   Clear
9:00 AM 55.4 °F - 51.8 °F 88% 30.30 in - Calm Calm - N/A   Clear
9:30 AM 59.0 °F - 53.6 °F 82% 30.30 in - Calm Calm - N/A   Clear
10:00 AM 60.8 °F - 55.4 °F 82% 30.33 in - Variable 1.2 mph - N/A   Clear
10:30 AM 64.4 °F - 55.4 °F 73% 30.33 in - Calm Calm - N/A   Clear
11:00 AM 68.0 °F - 55.4 °F 64% 30.33 in - Calm Calm - N/A   Clear
11:30 AM 71.6 °F - 55.4 °F 57% 30.33 in - Calm Calm - N/A   Clear
12:00 PM 73.4 °F - 55.4 °F 53% 30.33 in - Calm Calm - N/A   Clear
12:30 PM 75.2 °F - 55.4 °F 50% 30.30 in - Variable 1.2 mph - N/A   Clear
1:00 PM 77.0 °F - 55.4 °F 47% 30.30 in - Variable 1.2 mph - N/A   Clear
1:30 PM 78.8 °F - 51.8 °F 39% 30.27 in 6.2 mi Variable 1.2 mph - N/A   Partly Cloudy
2:00 PM 81 °F - 52 °F 26% 30.18 in 16 mi WNW 2.3 mph - -   Scattered Clouds
2:00 PM 80.6 °F 80.3 °F 53.6 °F 39% 30.27 in 6.2 mi Variable 1.2 mph - N/A   Partly Cloudy
2:30 PM 82.4 °F - 50.0 °F 32% 30.27 in 6.2 mi Variable 2.3 mph - N/A   Partly Cloudy
3:00 PM 82.4 °F - 50.0 °F 32% 30.24 in 6.2 mi Variable 1.2 mph - N/A   Partly Cloudy
3:30 PM 84.2 °F - 46.4 °F 27% 30.24 in 6.2 mi West 3.5 mph - N/A   Partly Cloudy
4:00 PM 86.0 °F - 48.2 °F 27% 30.21 in 6.2 mi Variable 3.5 mph - N/A   Partly Cloudy
4:30 PM 86.0 °F - 50.0 °F 29% 30.21 in 6.2 mi West 9.2 mph - N/A   Partly Cloudy
5:00 PM 84.2 °F - 48.2 °F 29% 30.21 in 6.2 mi WNW 8.1 mph - N/A   Partly Cloudy
5:30 PM 86.0 °F - 48.2 °F 27% 30.21 in 6.2 mi West 9.2 mph - N/A   Partly Cloudy
6:00 PM 84.2 °F - 48.2 °F 29% 30.21 in 6.2 mi West 11.5 mph - N/A   Partly Cloudy
6:30 PM 84.2 °F - 44.6 °F 25% 30.21 in - WNW 9.2 mph - N/A   Clear
7:00 PM 82.4 °F - 48.2 °F 30% 30.21 in 6.2 mi NNW 3.5 mph - N/A   Partly Cloudy
7:30 PM 80.6 °F - 48.2 °F 32% 30.21 in 6.2 mi NNW 4.6 mph - N/A   Partly Cloudy
8:00 PM 79 °F - 47 °F 22% 30.14 in 16 mi NW 2.3 mph - -   Scattered Clouds
8:00 PM 78.8 °F - 46.4 °F 32% 30.24 in 6.2 mi Variable 2.3 mph - N/A   Partly Cloudy
8:30 PM 75.2 °F - 48.2 °F 38% 30.24 in 6.2 mi SW 4.6 mph - N/A   Partly Cloudy
9:00 PM 71.6 °F - 50.0 °F 46% 30.24 in 6.2 mi South 3.5 mph - N/A   Partly Cloudy
9:30 PM 69.8 °F - 51.8 °F 53% 30.27 in 6.2 mi Variable 2.3 mph - N/A   Partly Cloudy
10:00 PM 69.8 °F - 51.8 °F 53% 30.27 in 6.2 mi Calm Calm - N/A   Partly Cloudy
10:30 PM 68.0 °F - 51.8 °F 56% 30.27 in 6.2 mi Variable 2.3 mph - N/A   Partly Cloudy
11:00 PM 66.2 °F - 53.6 °F 64% 30.27 in 6.2 mi South 3.5 mph - N/A   Partly Cloudy